Flag for United Kingdom Weather past 2 weeks in Edinburgh, Scotland, United Kingdom

Now
55 °F

Fog.


Feels Like: 55 °F
Forecast: 52 / 60 °F
Wind: 5 mph from East

Location: Edinburgh Airport

Current Time: Sep 16, 2014 at 6:59:37 AM

Latest Report: Sep 16, 2014 at 6:20 AM


Visibility: 1 mi

Pressure: 30.04 "Hg

Humidity: 100%

Dew point: 55 °F

Location of EdinburghLocation

Historic Weather in Edinburgh — Graph

°F

Edinburgh temperature yesterday

Maximum temperature yesterday: 57 °F (at 6:50 AM)
Minimum temperature yesterday: 55 °F (at 12:20 AM)
Average temperature yesterday: 57 °F

Past Weeks' High & Low Weather Summary

 TemperatureHumidityPressure
High68 °F (Sep 4, 5:20 PM)100% (Sep 3, 3:20 AM)30.42 "Hg (Sep 3, 3:20 AM)
Low41 °F (Sep 8, 7:20 AM)49% (Sep 8, 3:20 PM)29.95 "Hg (Sep 6, 3:20 PM)
Average56 °F85%30.17 "Hg
* Reported Sep 1 5:20 AM — Sep 16 5:50 AM, Edinburgh, Weather by CustomWeather, © 2014

Note: Actual official high and low records may vary slightly from our data, if they occured in-between our weather recording intervals... More about our weather records

Advertising

Edinburgh weather history for previous 24 hours

 ConditionsComfort  
Time TempWeatherWind HumidityBarometerVisibility
5:50 AM
Sep 16
55 °FFog.7 mph100%30.04 "Hg1 mi
5:20 AM57 °FFog.3 mph94%30.04 "Hg1 mi
4:50 AM57 °FCool.3 mph94%30.04 "Hg1 mi
4:20 AM57 °FFog.5 mph94%30.04 "Hg1 mi
3:50 AM57 °FFog.3 mph94%30.04 "Hg1 mi
3:20 AM57 °FFog.3 mph100%30.04 "Hg1 mi
2:50 AM55 °FFog.3 mph100%30.07 "Hg1 mi
2:20 AM55 °FFog.5 mph100%30.07 "Hg1 mi
1:50 AM57 °FLight rain. Fog.No wind94%30.07 "Hg1 mi
1:20 AM57 °FFog.3 mph100%30.07 "Hg1 mi
12:50 AM57 °FFog.2 mph100%30.07 "Hg0 mi
12:20 AM57 °FFog.3 mph94%30.07 "Hg1 mi
11:50 PM
Sep 15
57 °FFog.2 mph94%30.07 "Hg1 mi
11:20 PM57 °FFog.3 mph100%30.07 "Hg1 mi
10:50 PM57 °FFog.5 mph100%30.07 "Hg1 mi
10:20 PM57 °FFog.6 mph100%30.07 "Hg1 mi
9:50 PM57 °FFog.7 mph100%30.07 "Hg0 mi
9:20 PM57 °FFog.9 mph100%30.09 "Hg1 mi
8:50 PM57 °FRain. Fog.8 mph100%30.09 "Hg2 mi
8:20 PM57 °FLight rain. Fog.9 mph100%30.09 "Hg1 mi
7:50 PM57 °FRain. Low clouds.9 mph100%30.09 "Hg2 mi
7:20 PM57 °FFog.8 mph100%30.09 "Hg1 mi
6:50 PM57 °FDrizzle. Fog.9 mph100%30.09 "Hg0 mi
6:20 PM57 °FDrizzle. Fog.10 mph100%30.09 "Hg0 mi
5:50 PM57 °FDrizzle. Fog.12 mph100%30.09 "Hg1 mi
5:20 PM57 °FDrizzle. Fog.10 mph100%30.09 "Hg1 mi
4:50 PM57 °FDrizzle. Fog.10 mph100%30.09 "Hg0 mi
4:20 PM57 °FDrizzle. Fog.13 mph100%30.12 "Hg0 mi
3:50 PM57 °FDrizzle. Fog.10 mph100%30.12 "Hg0 mi
3:20 PM57 °FDrizzle. Fog.10 mph100%30.12 "Hg0 mi
2:50 PM57 °FDrizzle. Fog.12 mph100%30.15 "Hg0 mi
2:20 PM57 °FDrizzle. Fog.8 mph100%30.15 "Hg1 mi
1:50 PM57 °FLight rain. Low clouds.9 mph100%30.15 "Hg1 mi
1:20 PM57 °FDrizzle. Low clouds.8 mph94%30.15 "Hg1 mi
12:50 PM57 °FDrizzle. Mostly cloudy.8 mph94%30.18 "Hg1 mi
12:20 PM57 °FLight rain. Low clouds.10 mph94%30.18 "Hg1 mi
11:50 AM57 °FDrizzle. Low clouds.9 mph94%30.18 "Hg1 mi
11:20 AM55 °FDrizzle. Low clouds.8 mph100%30.21 "Hg2 mi
10:50 AM55 °FDrizzle. Low clouds.13 mph100%30.21 "Hg1 mi
10:20 AM55 °FDrizzle. Low clouds.12 mph100%30.21 "Hg1 mi
9:50 AM55 °FDrizzle. Low clouds.10 mph100%30.21 "Hg1 mi
9:20 AM57 °FLight rain. Low clouds.13 mph94%30.21 "Hg1 mi
8:50 AM55 °FDrizzle. Low clouds.12 mph100%30.21 "Hg2 mi
8:20 AM57 °FDrizzle. Low clouds.12 mph94%30.21 "Hg2 mi
7:50 AM57 °FLight rain. Low clouds.9 mph94%30.21 "Hg4 mi
7:20 AM57 °FLow clouds.10 mph94%30.21 "Hg4 mi
6:50 AM57 °FLow clouds.10 mph94%30.24 "Hg4 mi
6:20 AM55 °FPassing clouds.8 mph94%30.24 "Hg4 mi
Weather by CustomWeather, © 2014

See weather overviewHow to use our weather pages